Hourly Data Report for October 28, 2015

All times are specified in Local Standard Time (LST). Add 1 hour to adjust for Daylight Saving Time where and when it is observed.

PANGNIRTUNG
NUNAVUT

66°08'36.300" N
65°42'40.500" W
22.60 m
2403049
71826
WXP

Download Data

Hourly Data (October 2015)
Hourly Data Report for October 28, 2015
Temp Definition
°C
Dew Point Temp Definition
°C
Rel Hum Definition
%
Wind Dir Definition
10's deg

Wind Spd Definition
km/h
Visibility Definition
km
Stn Press Definition
kPa
Hmdx Definition


Wind Chill Definition


Weather Definition


TIME
00:00 -6.3 -13.6 56 9 12   99.87   -11 LegendNANA
01:00 -6.6 -13.2 60 9 9   99.95   -11 LegendNANA
02:00 -6.6 -13.4 58 7 14   100.03   -12 LegendNANA
03:00 -6.8 -14.2 56 8 11   100.12   -12 LegendNANA
04:00 -7.0 -13.2 62 9 8   100.18   -11 LegendNANA
05:00 -7.6 -14.1 59 11 5   100.23   -10 LegendNANA
06:00 -9.0 -14.6 64 15 2   100.30   -10 LegendNANA
07:00 -9.6 -15.1 64 14 3   100.34   -11 LegendNANA
08:00 -9.3 -14.8 64 14 6   100.38   -13 LegendNANA
09:00 -9.3 -14.5 66 26 3   100.39   -11 LegendNANA
10:00 -9.3 -14.4 67 24 5   100.43   -12 LegendNANA
11:00 -9.8 -13.9 72 24 4   100.45   -12 LegendNANA
12:00 -9.8 -13.8 73 17 3   100.49   -12 LegendNANA
13:00 -9.9 -13.2 77 18 2   100.55   -11 LegendNANA
14:00 -10.9 -12.8 86 24 14   100.60   -18 LegendNANA
15:00 -11.1 -13.8 80 20 2   100.63   -12 LegendNANA
16:00 -11.5 -14.3 80 20 8   100.65   -16 LegendNANA
17:00 -11.6 -14.3 81 18 4   100.65   -14 LegendNANA
18:00 -11.7 -14.3 81 21 5   100.65   -15 LegendNANA
19:00 -11.5 -14.3 79 20 3   100.65   -13 LegendNANA
20:00 -11.3 -13.5 83 23 5   100.64   -14 LegendNANA
21:00 -12.3 -14.8 81 20 4   100.63   -15 LegendNANA
22:00 -12.6 -15.2 81 21 7   100.61   -17 LegendNANA
23:00 -12.6 -15.0 82 23 5   100.61   -16 LegendNANA

Notes on Data Quality.

Legend

  • E = Estimated
  • M = Missing
  • NA = Not Available
  • ‡ = Partner data that is not subject to review by the National Climate Archives
Date modified: